This is the latest recevied weather packets stored in our database for station/object KC5TIL. If no packets are shown the sender has not sent any weather packets the latest 10 day(s).
| Time | Temp. | Humidity | Pressure | Rain* | Wind** | Luminosity | Snow |
|---|---|---|---|---|---|---|---|
| 1777229256 | 27.22° C | 80% | 1008.7 hPa | 0 mm | - | 246 W/m² | - |
| 1777228953 | 26.11° C | 81% | 1008.6 hPa | 0 mm | - | 397 W/m² | - |
| 1777228649 | 26.67° C | 80% | 1008.9 hPa | 0 mm | - | 282 W/m² | - |
| 1777228345 | 26.11° C | 81% | 1009.1 hPa | 0 mm | - | 340 W/m² | - |
| 1777228040 | 26.67° C | 80% | 1008.9 hPa | 0 mm | - | 277 W/m² | - |
| 1777227734 | 26.67° C | 81% | 1008.9 hPa | 0 mm | - | 378 W/m² | - |
| 1777227431 | 26.67° C | 80% | 1009.1 hPa | 0 mm | - | 343 W/m² | - |
| 1777227127 | 27.22° C | 79% | 1009 hPa | 0 mm | - | 440 W/m² | - |
| 1777226824 | 26.11° C | 81% | 1009.4 hPa | 0 mm | - | 460 W/m² | - |
| 1777226522 | 26.11° C | 81% | 1009.5 hPa | 0 mm | - | 556 W/m² | - |
| 1777226218 | 25.56° C | 82% | 1009.6 hPa | 0 mm | - | 241 W/m² | - |
| 1777225915 | 25.56° C | 82% | 1009.8 hPa | 0 mm | - | 140 W/m² | - |
| 1777225610 | 26.11° C | 81% | 1009.7 hPa | 0 mm | - | 260 W/m² | - |
| 1777225308 | 26.67° C | 81% | 1009.6 hPa | 0 mm | - | 379 W/m² | - |
| 1777225004 | 26.11° C | 83% | 1009.8 hPa | 0 mm | - | 505 W/m² | - |
| 1777224701 | 25.56° C | 82% | 1009.8 hPa | 0 mm | - | 284 W/m² | - |
| 1777224396 | 26.11° C | 82% | 1009.8 hPa | 0 mm | - | 259 W/m² | - |
| 1777224092 | 26.11° C | 82% | 1009.8 hPa | 0 mm | - | 376 W/m² | - |
| 1777223790 | 26.11° C | 83% | 1009.8 hPa | 0 mm | - | 315 W/m² | - |
| 1777223485 | 25.56° C | 83% | 1009.8 hPa | 0 mm | - | 451 W/m² | - |
| 1777223183 | 25° C | 85% | 1009.9 hPa | 0 mm | - | 382 W/m² | - |
| 1777222880 | 24.44° C | 86% | 1010 hPa | 0 mm | - | 288 W/m² | - |
| 1777222578 | 24.44° C | 87% | 1010.1 hPa | 0 mm | - | 163 W/m² | - |
| 1777222275 | 24.44° C | 87% | 1010.2 hPa | 0 mm | - | 115 W/m² | - |
| 1777221973 | 24.44° C | 87% | 1010.3 hPa | 0 mm | - | 168 W/m² | - |
* Rain latest hour (hover to see other rain measurements)
** Current wind speed in m/s (hover to see current wind gust speed)